TimeCDT,TemperatureF,Dew PointF,Humidity,Sea Level PressureIn,VisibilityMPH,Wind Direction,Wind SpeedMPH,Gust SpeedMPH,PrecipitationIn,Events,Conditions,WindDirDegrees,DateUTC
12:13 AM,42.8,26.6,53,30.22,10.0,WNW,16.1,-,N/A,,Overcast,300,2012-10-05 05:13:00
12:34 AM,42.8,26.6,53,30.22,10.0,WNW,17.3,20.7,N/A,,Overcast,300,2012-10-05 05:34:00
12:53 AM,41.0,26.6,57,30.22,10.0,WNW,13.8,-,N/A,,Overcast,290,2012-10-05 05:53:00
1:14 AM,39.2,26.6,61,30.23,10.0,West,16.1,-,N/A,,Mostly Cloudy,280,2012-10-05 06:14:00
1:33 AM,37.4,26.6,65,30.23,10.0,West,10.4,-,N/A,,Clear,270,2012-10-05 06:33:00
1:53 AM,35.6,26.6,70,30.23,10.0,West,9.2,-,N/A,,Clear,270,2012-10-05 06:53:00
2:13 AM,33.8,26.6,75,30.23,10.0,West,8.1,-,N/A,,Clear,280,2012-10-05 07:13:00
2:34 AM,32.0,26.6,80,30.22,10.0,West,8.1,-,N/A,,Clear,280,2012-10-05 07:34:00
3:13 AM,32.0,26.6,80,30.21,10.0,West,9.2,-,N/A,,Clear,270,2012-10-05 08:13:00
3:33 AM,32.0,26.6,80,30.21,10.0,WNW,9.2,-,N/A,,Clear,290,2012-10-05 08:33:00
3:53 AM,35.6,26.6,70,30.20,10.0,WNW,12.7,-,N/A,,Clear,300,2012-10-05 08:53:00
4:14 AM,33.8,26.6,75,30.20,10.0,WNW,12.7,-,N/A,,Clear,290,2012-10-05 09:14:00
4:33 AM,33.8,26.6,75,30.21,10.0,WNW,12.7,-,N/A,,Clear,290,2012-10-05 09:33:00
4:54 AM,33.8,26.6,75,30.21,10.0,West,8.1,-,N/A,,Clear,270,2012-10-05 09:54:00
5:13 AM,30.2,26.6,86,30.21,10.0,West,9.2,-,N/A,,Clear,270,2012-10-05 10:13:00
5:33 AM,30.2,26.6,86,30.21,10.0,West,10.4,-,N/A,,Clear,280,2012-10-05 10:33:00
5:53 AM,30.2,26.6,86,30.21,10.0,West,11.5,-,N/A,,Clear,280,2012-10-05 10:53:00
6:14 AM,30.2,24.8,80,30.21,10.0,West,10.4,-,N/A,,Clear,280,2012-10-05 11:14:00
6:33 AM,30.2,24.8,80,30.21,10.0,WNW,10.4,-,N/A,,Clear,290,2012-10-05 11:33:00
6:54 AM,30.2,24.8,80,30.20,10.0,WNW,13.8,-,N/A,,Clear,290,2012-10-05 11:54:00
7:13 AM,30.2,24.8,80,30.21,10.0,WNW,15.0,-,N/A,,Clear,290,2012-10-05 12:13:00
7:34 AM,30.2,24.8,80,30.21,10.0,WNW,13.8,-,N/A,,Clear,300,2012-10-05 12:34:00
7:53 AM,32.0,24.8,75,30.21,10.0,WNW,13.8,-,N/A,,Clear,300,2012-10-05 12:53:00
8:15 AM,32.0,24.8,75,30.21,10.0,WNW,15.0,-,N/A,,Clear,300,2012-10-05 13:15:00
8:33 AM,33.8,24.8,70,30.22,10.0,WNW,15.0,19.6,N/A,,Clear,290,2012-10-05 13:33:00
8:54 AM,35.6,24.8,65,30.23,10.0,WNW,17.3,21.9,N/A,,Clear,290,2012-10-05 13:54:00
9:33 AM,37.4,24.8,60,30.23,10.0,WNW,15.0,-,N/A,,Clear,300,2012-10-05 14:33:00
9:54 AM,37.4,24.8,60,30.24,10.0,WNW,20.7,25.3,N/A,,Clear,290,2012-10-05 14:54:00
10:14 AM,37.4,24.8,60,30.23,10.0,WNW,19.6,26.5,N/A,,Clear,300,2012-10-05 15:14:00
10:33 AM,39.2,24.8,56,30.23,10.0,NW,18.4,24.2,N/A,,Clear,310,2012-10-05 15:33:00
11:13 AM,41.0,24.8,53,30.22,10.0,WNW,18.4,24.2,N/A,,Scattered Clouds,290,2012-10-05 16:13:00
11:33 AM,42.8,24.8,49,30.22,10.0,NW,20.7,26.5,N/A,,Scattered Clouds,310,2012-10-05 16:33:00
11:53 AM,42.8,24.8,49,30.22,10.0,NW,18.4,28.8,N/A,,Scattered Clouds,310,2012-10-05 16:53:00
12:13 PM,44.6,24.8,46,30.21,10.0,NW,19.6,27.6,N/A,,Scattered Clouds,310,2012-10-05 17:13:00
12:33 PM,42.8,24.8,49,30.22,10.0,WNW,24.2,29.9,N/A,,Scattered Clouds,300,2012-10-05 17:33:00
12:54 PM,44.6,24.8,46,30.21,10.0,WNW,21.9,27.6,N/A,,Clear,300,2012-10-05 17:54:00
1:14 PM,44.6,24.8,46,30.21,10.0,NW,23.0,32.2,N/A,,Scattered Clouds,310,2012-10-05 18:14:00
1:34 PM,46.4,24.8,43,30.21,10.0,NW,21.9,27.6,N/A,,Scattered Clouds,310,2012-10-05 18:34:00
1:53 PM,44.6,24.8,46,30.21,10.0,NW,20.7,29.9,N/A,,Scattered Clouds,320,2012-10-05 18:53:00
2:13 PM,44.6,24.8,46,30.21,10.0,NW,20.7,27.6,N/A,,Mostly Cloudy,310,2012-10-05 19:13:00
2:33 PM,44.6,24.8,46,30.21,10.0,NW,19.6,29.9,N/A,,Mostly Cloudy,320,2012-10-05 19:33:00
2:55 PM,44.6,23.0,43,30.21,10.0,NW,23.0,31.1,N/A,,Overcast,310,2012-10-05 19:55:00
3:14 PM,44.6,24.8,46,30.21,10.0,NW,21.9,31.1,N/A,,Overcast,310,2012-10-05 20:14:00
3:33 PM,44.6,24.8,46,30.21,10.0,NW,23.0,28.8,N/A,,Overcast,310,2012-10-05 20:33:00
3:53 PM,44.6,24.8,46,30.21,10.0,NW,23.0,29.9,N/A,,Overcast,310,2012-10-05 20:53:00
4:13 PM,44.6,24.8,46,30.20,10.0,NW,20.7,26.5,N/A,,Overcast,310,2012-10-05 21:13:00
4:33 PM,44.6,24.8,46,30.20,10.0,NW,19.6,25.3,N/A,,Overcast,320,2012-10-05 21:33:00
4:53 PM,42.8,24.8,49,30.21,10.0,NW,19.6,28.8,N/A,,Overcast,310,2012-10-05 21:53:00
5:14 PM,42.8,24.8,49,30.21,10.0,NW,18.4,31.1,N/A,,Overcast,310,2012-10-05 22:14:00
5:33 PM,42.8,24.8,49,30.21,10.0,NNW,20.7,25.3,N/A,,Overcast,330,2012-10-05 22:33:00
5:53 PM,42.8,24.8,49,30.21,10.0,NNW,19.6,28.8,N/A,,Overcast,330,2012-10-05 22:53:00
6:13 PM,42.8,24.8,49,30.22,10.0,NW,21.9,29.9,N/A,,Overcast,320,2012-10-05 23:13:00
6:34 PM,41.0,24.8,53,30.23,10.0,NW,19.6,27.6,N/A,,Overcast,320,2012-10-05 23:34:00
6:54 PM,41.0,24.8,53,30.23,10.0,NW,20.7,27.6,N/A,,Overcast,320,2012-10-05 23:54:00
7:14 PM,41.0,24.8,53,30.23,10.0,NW,19.6,29.9,N/A,,Overcast,320,2012-10-06 00:14:00
7:34 PM,41.0,24.8,53,30.23,10.0,NW,18.4,24.2,N/A,,Overcast,310,2012-10-06 00:34:00
7:54 PM,41.0,24.8,53,30.23,10.0,NW,13.8,21.9,N/A,,Overcast,310,2012-10-06 00:54:00
8:13 PM,41.0,24.8,53,30.24,10.0,NW,20.7,26.5,N/A,,Overcast,320,2012-10-06 01:13:00
8:33 PM,39.2,26.6,61,30.24,10.0,NW,18.4,23.0,N/A,,Overcast,320,2012-10-06 01:33:00
8:54 PM,39.2,26.6,61,30.24,10.0,NW,16.1,23.0,N/A,,Scattered Clouds,320,2012-10-06 01:54:00
9:14 PM,37.4,26.6,65,30.25,10.0,NW,18.4,23.0,N/A,,Scattered Clouds,310,2012-10-06 02:14:00
9:34 PM,39.2,28.4,65,30.25,10.0,NW,19.6,24.2,N/A,,Mostly Cloudy,320,2012-10-06 02:34:00
9:53 PM,37.4,28.4,70,30.25,10.0,NW,19.6,24.2,N/A,,Scattered Clouds,320,2012-10-06 02:53:00
10:13 PM,37.4,28.4,70,30.25,10.0,NW,16.1,23.0,N/A,,Clear,320,2012-10-06 03:13:00
10:34 PM,35.6,28.4,75,30.25,10.0,NW,15.0,-,N/A,,Clear,320,2012-10-06 03:34:00
10:54 PM,35.6,28.4,75,30.25,10.0,NW,15.0,21.9,N/A,,Scattered Clouds,320,2012-10-06 03:54:00
11:34 PM,35.6,28.4,75,30.26,10.0,NW,13.8,-,N/A,,Scattered Clouds,320,2012-10-06 04:34:00
11:53 PM,35.6,28.4,75,30.26,10.0,NW,15.0,-,N/A,,Clear,310,2012-10-06 04:53:00